Regional Weather Roundup
Issued by NWS Albany, NY

Home | Current Version | Previous Version | Text Only | Print | Product List | Glossary On
Versions: 1 2 3 4 5 6 7 8 9 10 11 12 13 14 15 16 17 18 19 20 21 22 23 24 25 26 27 28 29 30 31 32 33 34 35 36 37 38 39 40 41 42 43 44 45 46 47 48
000
ASUS41 KALY 212110
RWRALY

NEW YORK STATE HOURLY WEATHER ROUNDUP
NATIONAL WEATHER SERVICE ALBANY NY
400 PM EST SUN DEC 21 2014

NOTE: "FAIR" INDICATES FEW OR NO CLOUDS BELOW 12,000 FEET WITH NO
SIGNIFICANT WEATHER AND/OR NO OBSTRUCTIONS TO VISIBILITY.

NYZ032-033-038>043-046>054-057>066-NYZ062>081-212200-
EAST


CITY           SKY/WX    TMP DP  RH WIND       PRES   REMARKS
ALBANY         CLOUDY    31  23  72 NE3       30.32F
GLENS FALLS    CLOUDY    29  22  75 NE5       30.32S WCI  24
POUGHKEEPSIE   CLOUDY    34  26  72 NE7       30.30S WCI  28
MONTGOMERY     CLOUDY    33  27  78 NE6       30.28S WCI  28
WHITE PLAINS   CLOUDY    33  29  85 NW7       30.27R WCI  27
ISLIP          CLOUDY    36  31  82 N8        30.26R WCI  30
NEW YORK CITY  CLOUDY    36  28  73 N7        30.30R WCI  30
CENTRAL PARK   CLOUDY    35  27  72 NW5       30.31R WCI  31
$$

NYZ005>009-017-018-044>046-055-056-212200-
CENTRAL


CITY           SKY/WX    TMP DP  RH WIND       PRES   REMARKS
FULTON         CLOUDY    31  25  78 CALM      30.30R
SYRACUSE       FLURRIES  31  26  82 CALM      30.30S
ROME           CLOUDY    31  22  69 CALM      30.32R
ELMIRA         CLOUDY    32  22  66 W6        30.28R WCI  26
BINGHAMTON     CLOUDY    27  20  75 CALM      30.23S
MONTICELLO     CLOUDY    30  25  80 W3        30.25R
$$

NYZ026>034-041>043-212200-
NORTH


CITY           SKY/WX    TMP DP  RH WIND       PRES   REMARKS
WATERTOWN      PTCLDY    33  23  66 W3        30.31R
FORT DRUM      NOT AVBL
MASSENA        CLOUDY    21  15  78 E7        30.36R WCI  12
SARANAC LAKE   CLOUDY    24  19  81 CALM      30.21F
PLATTSBURGH    CLOUDY    20  17  88 N8        30.36R FOG     WCI  10
$$

NYZ001>004-010>016-019>021-212200-
WEST


CITY           SKY/WX    TMP DP  RH WIND       PRES   REMARKS
NIAGARA FALLS  MOCLDY    32  22  66 SW6       30.28R WCI  26
BUFFALO        MOCLDY    32  21  64 W7        30.28R WCI  26
DUNKIRK        CLOUDY    32  22  66 CALM      30.28S
JAMESTOWN      CLOUDY    27  19  74 E3        30.22S
WELLSVILLE     CLOUDY    26  22  84 CALM      30.21F
ROCHESTER      CLOUDY    34  22  61 SW8       30.29R WCI  27
PENN YAN       CLOUDY    32  21  64 NW3       30.28R
$$

             KEY
       WCI = WIND CHILL INDEX
       VSB = VISIBILITY
       HX  = HEAT INDEX
$$



USA.gov is the U.S. government's official web portal to all federal, state and local government web resources and services.